Regional Weather Roundup
Issued by NWS Little Rock, AR

Home | Current Version | Previous Version | Graphics & Text | Print | Product List | Glossary On
Versions: 1 2 3 4 5 6 7 8 9 10 11 12 13 14 15 16 17 18 19 20 21 22 23 24 25 26 27 28 29 30 31 32 33 34 35 36 37 38 39 40 41 42 43 44 45 46 47 48 49 50
000
ASUS44 KLZK 221905
RWRLZK

WEATHER ROUNDUP FOR ARKANSAS
NATIONAL WEATHER SERVICE LITTLE ROCK AR
100 PM CST SAT NOV 22 2014

NOTE: "FAIR" INDICATES FEW OR NO CLOUDS BELOW 12,000 FEET WITH NO
SIGNIFICANT WEATHER AND/OR OBSTRUCTIONS TO VISIBILITY.

ARZ001-003-010-029-222000-
NORTHWEST ARKANSAS

CITY           SKY/WX    TMP DP  RH WIND       PRES   REMARKS
FAYETTEVILLE   HVY RAIN  51  51 100 S6        30.05F FOG
FORT SMITH     RAIN      53  51  93 E7        30.05F FOG
HARRISON       LGT RAIN  52  51  97 SE13      30.03F
BENTONVILLE    CLOUDY    54  48  82 S14G21    30.05F
ROGERS         LGT RAIN  53  52  96 S10       30.04F
SILOAM SPGS    CLOUDY    52  46  82 SE10      30.01F
HIGHFILL       RAIN      53  52  96 S13       30.03F FOG
SPRINGDALE     LGT RAIN  52  52 100 S14       30.06F FOG
$$

ARZ004-005-016-222000-
NORTH CENTRAL ARKANSAS

CITY           SKY/WX    TMP DP  RH WIND       PRES   REMARKS
BATESVILLE     CLOUDY    61  48  63 S8        30.10F
FLIPPIN        CLOUDY    54  46  76 S8        30.06F
MTN HOME       LGT RAIN  52  51  97 S9        30.05F FOG
$$

ARZ040-041-222000-
WEST CENTRAL ARKANSAS

CITY           SKY/WX    TMP DP  RH WIND       PRES   REMARKS
MENA           CLOUDY    63  55  77 SW3       30.03F
MOUNT IDA      CLOUDY    61  53  75 MISG      30.01F
$$

ARZ009-017-025-026-028-222000-
NORTHEAST ARKANSAS

CITY           SKY/WX    TMP DP  RH WIND       PRES   REMARKS
CORNING        FAIR      64  50  59 SW17G24   30.11F
JONESBORO      CLOUDY    66  45  46 S12       30.11F
NEWPORT        CLOUDY    64  49  58 S16       30.11F
WALNUT RIDGE   PTSUNNY   63  25  23 S20G25    30.11F
BLYTHEVILLE    MOSUNNY   77  41  27 S16G22    30.13F
$$

ARZ022-023-033-042-044-222000-
CENTRAL ARKANSAS

CITY           SKY/WX    TMP DP  RH WIND       PRES   REMARKS
LITTLE ROCK    PTSUNNY   64  50  60 E7        30.08F
N LITTLE ROCK  PTSUNNY   63  53  69 SE9       30.08F
JACKSONVILLE   PTSUNNY   63  50  61 SE9       30.08F
SEARCY         CLOUDY    62  51  67 S9        30.10F
HOT SPRINGS    CLOUDY    62  54  74 SE7       30.05F
RUSSELLVILLE   CLOUDY    56  54  93 VRB3      30.04F
CLINTON        LGT RAIN  54  54 100 CALM      30.10F
$$

ARZ036-222000-
EAST ARKANSAS

CITY           SKY/WX    TMP DP  RH WIND       PRES   REMARKS
WEST MEMPHIS   MOSUNNY   66  44  45 S17       30.12F
$$

ARZ050-053-066-070-073-222000-
SOUTHWEST ARKANSAS

CITY           SKY/WX    TMP DP  RH WIND       PRES   REMARKS
ARKADELPHIA    FAIR      68  57  67 S8        30.05F
CAMDEN         SUNNY     72  52  49 NE10      30.05F
TEXARKANA      SUNNY     69  55  60 SE9G20    30.00F
EL DORADO      SUNNY     69  54  58 SE13G22   30.05F
DE QUEEN       CLOUDY    62  56  80 SE6       30.00F
$$

ARZ056-057-069-222000-
SOUTHEAST ARKANSAS

CITY           SKY/WX    TMP DP  RH WIND       PRES   REMARKS
PINE BLUFF     CLOUDY    68  51  54 S15       30.08F
STUTTGART      CLOUDY    63  48  59 S14       30.10F
MONTICELLO     SUNNY     69  52  54 VRB6      30.08F

$$





USA.gov is the U.S. government's official web portal to all federal, state and local government web resources and services.